Stündliche Wetter Holodnaya Polyana

Heute, 16 Juni, Mittwoch

Zeit Temperatur Niederschläge Wind Luftdruck Luftfeuchtigkeit
00:00 +18°C° 0 mm 2 m/S 739 mmHg 87%
01:00 +18°C° 0 mm 2 m/S 738 mmHg 87%
02:00 +18°C° 0 mm 2 m/S 738 mmHg 87%
03:00 +17°C° 0 mm 2 m/S 738 mmHg 86%
04:00 +18°C° 0 mm 2 m/S 738 mmHg 83%
05:00 +19°C° 0 mm 3 m/S 738 mmHg 81%
06:00 +20°C° 0 mm 3 m/S 738 mmHg 78%
07:00 +22°C° 0 mm 3 m/S 737 mmHg 71%
08:00 +25°C° 0 mm 4 m/S 737 mmHg 63%
09:00 +27°C° 0 mm 5 m/S 737 mmHg 56%
10:00 +28°C° 0 mm 6 m/S 737 mmHg 55%
11:00 +28°C° 0 mm 6 m/S 737 mmHg 54%
12:00 +29°C° 0 mm 7 m/S 736 mmHg 53%
13:00 +28°C° 0.1 mm 7 m/S 736 mmHg 57%
14:00 +28°C° 0.1 mm 6 m/S 736 mmHg 62%
15:00 +27°C° 0.1 mm 6 m/S 736 mmHg 66%
16:00 +26°C° 0.2 mm 6 m/S 736 mmHg 70%
17:00 +25°C° 0.2 mm 5 m/S 735 mmHg 74%
18:00 +23°C° 0.2 mm 4 m/S 735 mmHg 77%
19:00 +22°C° 0 mm 4 m/S 735 mmHg 81%
20:00 +20°C° 0 mm 3 m/S 735 mmHg 85%
21:00 +19°C° 0 mm 2 m/S 734 mmHg 89%
22:00 +19°C° 0.1 mm 3 m/S 734 mmHg 91%
23:00 +18°C° 0.1 mm 3 m/S 734 mmHg 92%

Morgen, 17 Juni, Donnerstag

Zeit Temperatur Niederschläge Wind Luftdruck Luftfeuchtigkeit
00:00 +18°C° 0.1 mm 3 m/S 734 mmHg 94%
01:00 +17°C° 0 mm 3 m/S 734 mmHg 94%
02:00 +17°C° 0 mm 2 m/S 735 mmHg 95%
03:00 +17°C° 0 mm 2 m/S 735 mmHg 96%
04:00 +17°C° 0.1 mm 3 m/S 735 mmHg 95%
05:00 +16°C° 0.1 mm 5 m/S 736 mmHg 94%
06:00 +16°C° 0.1 mm 6 m/S 736 mmHg 92%
07:00 +17°C° 0 mm 6 m/S 737 mmHg 83%
08:00 +17°C° 0 mm 7 m/S 737 mmHg 73%
09:00 +18°C° 0 mm 7 m/S 738 mmHg 64%
10:00 +18°C° 0 mm 7 m/S 738 mmHg 59%
11:00 +20°C° 0 mm 7 m/S 739 mmHg 54%
12:00 +21°C° 0 mm 7 m/S 739 mmHg 49%
13:00 +21°C° 0 mm 7 m/S 740 mmHg 50%
14:00 +21°C° 0 mm 7 m/S 740 mmHg 51%
15:00 +21°C° 0 mm 7 m/S 740 mmHg 51%
16:00 +20°C° 0 mm 7 m/S 740 mmHg 55%
17:00 +19°C° 0 mm 6 m/S 741 mmHg 59%
18:00 +17°C° 0 mm 6 m/S 741 mmHg 63%
19:00 +16°C° 0 mm 5 m/S 741 mmHg 66%
20:00 +14°C° 0 mm 4 m/S 742 mmHg 69%
21:00 +12°C° 0 mm 3 m/S 742 mmHg 72%
22:00 +12°C° 0 mm 3 m/S 742 mmHg 75%
23:00 +11°C° 0 mm 3 m/S 742 mmHg 77%

übermorgen, 18 Juni, Freitag

Zeit Temperatur Niederschläge Wind Luftdruck Luftfeuchtigkeit
00:00 +11°C° 0 mm 4 m/S 743 mmHg 80%
01:00 +10°C° 0 mm 4 m/S 743 mmHg 80%
02:00 +10°C° 0 mm 4 m/S 743 mmHg 80%
03:00 +8°C° 0 mm 4 m/S 743 mmHg 80%
04:00 +9°C° 0 mm 5 m/S 744 mmHg 79%
05:00 +10°C° 0 mm 5 m/S 744 mmHg 78%
06:00 +10°C° 0 mm 5 m/S 745 mmHg 78%
07:00 +13°C° 0 mm 5 m/S 745 mmHg 73%
08:00 +14°C° 0 mm 5 m/S 746 mmHg 68%
09:00 +16°C° 0 mm 5 m/S 746 mmHg 62%
10:00 +17°C° 0 mm 5 m/S 746 mmHg 58%
11:00 +19°C° 0 mm 5 m/S 746 mmHg 53%
12:00 +20°C° 0 mm 5 m/S 746 mmHg 48%
13:00 +20°C° 0 mm 5 m/S 747 mmHg 48%
14:00 +20°C° 0 mm 5 m/S 747 mmHg 47%
15:00 +20°C° 0 mm 5 m/S 747 mmHg 47%
16:00 +19°C° 0 mm 5 m/S 747 mmHg 52%
17:00 +19°C° 0 mm 4 m/S 747 mmHg 58%
18:00 +18°C° 0 mm 3 m/S 747 mmHg 64%
19:00 +17°C° 0 mm 3 m/S 747 mmHg 69%
20:00 +14°C° 0 mm 3 m/S 747 mmHg 75%
21:00 +13°C° 0 mm 2 m/S 747 mmHg 80%
22:00 +13°C° 0 mm 2 m/S 748 mmHg 80%
23:00 +13°C° 0 mm 2 m/S 748 mmHg 81%

19 Juni, Samstag

Zeit Temperatur Niederschläge Wind Luftdruck Luftfeuchtigkeit
00:00 +12°C° 0 mm 2 m/S 748 mmHg 81%
01:00 +12°C° 0 mm 2 m/S 748 mmHg 80%
02:00 +12°C° 0 mm 2 m/S 748 mmHg 79%
03:00 +12°C° 0 mm 2 m/S 748 mmHg 78%
04:00 +13°C° 0 mm 2 m/S 748 mmHg 76%
05:00 +13°C° 0 mm 3 m/S 748 mmHg 73%
06:00 +14°C° 0 mm 3 m/S 748 mmHg 71%
07:00 +17°C° 0 mm 4 m/S 748 mmHg 67%
08:00 +19°C° 0 mm 5 m/S 748 mmHg 64%
09:00 +20°C° 0 mm 5 m/S 748 mmHg 60%
10:00 +21°C° 0 mm 6 m/S 748 mmHg 58%
11:00 +22°C° 0 mm 6 m/S 747 mmHg 56%
12:00 +23°C° 0 mm 6 m/S 747 mmHg 54%
13:00 +24°C° 0 mm 7 m/S 747 mmHg 57%
14:00 +24°C° 0 mm 7 m/S 746 mmHg 59%
15:00 +24°C° 0 mm 7 m/S 746 mmHg 61%
16:00 +24°C° 0 mm 6 m/S 746 mmHg 65%
17:00 +23°C° 0 mm 6 m/S 745 mmHg 70%
18:00 +23°C° 0 mm 5 m/S 745 mmHg 74%
19:00 +22°C° 0 mm 5 m/S 745 mmHg 80%
20:00 +20°C° 0 mm 4 m/S 745 mmHg 86%
21:00 +19°C° 0 mm 4 m/S 745 mmHg 91%
22:00 +18°C° 0 mm 3 m/S 745 mmHg 92%
23:00 +18°C° 0 mm 3 m/S 745 mmHg 93%

20 Juni, Sonntag

Zeit Temperatur Niederschläge Wind Luftdruck Luftfeuchtigkeit
00:00 +18°C° 0 mm 3 m/S 744 mmHg 94%
01:00 +18°C° 0 mm 3 m/S 744 mmHg 94%
02:00 +17°C° 0 mm 3 m/S 744 mmHg 94%
03:00 +17°C° 0 mm 3 m/S 744 mmHg 94%
04:00 +18°C° 0 mm 3 m/S 745 mmHg 89%
05:00 +19°C° 0 mm 3 m/S 745 mmHg 84%
06:00 +21°C° 0 mm 3 m/S 745 mmHg 79%
07:00 +22°C° 0 mm 4 m/S 745 mmHg 74%
08:00 +25°C° 0 mm 4 m/S 745 mmHg 68%
09:00 +26°C° 0 mm 5 m/S 745 mmHg 63%
10:00 +27°C° 0 mm 5 m/S 745 mmHg 59%
11:00 +28°C° 0 mm 6 m/S 745 mmHg 56%
12:00 +29°C° 0 mm 6 m/S 745 mmHg 52%
13:00 +29°C° 0 mm 6 m/S 745 mmHg 52%
14:00 +29°C° 0 mm 5 m/S 745 mmHg 52%
15:00 +29°C° 0 mm 5 m/S 745 mmHg 51%
16:00 +28°C° 0 mm 4 m/S 745 mmHg 58%
17:00 +27°C° 0 mm 4 m/S 745 mmHg 64%
18:00 +27°C° 0 mm 3 m/S 745 mmHg 70%
19:00 +26°C° 0 mm 3 m/S 745 mmHg 72%
20:00 +25°C° 0 mm 2 m/S 745 mmHg 73%
21:00 +24°C° 0 mm 2 m/S 745 mmHg 75%
22:00 +24°C° 0 mm 1 m/S 745 mmHg 75%
23:00 +24°C° 0 mm 1 m/S 745 mmHg 74%

21 Juni, Montag

Zeit Temperatur Niederschläge Wind Luftdruck Luftfeuchtigkeit
00:00 +23°C° 0 mm 1 m/S 745 mmHg 74%
01:00 +23°C° 0 mm 1 m/S 745 mmHg 75%
02:00 +23°C° 0 mm 1 m/S 746 mmHg 76%
03:00 +20°C° 0 mm 0 m/S 746 mmHg 77%
04:00 +20°C° 0 mm 0 m/S 746 mmHg 78%
05:00 +21°C° 0 mm 0 m/S 746 mmHg 79%
06:00 +21°C° 0 mm 0 m/S 746 mmHg 79%
07:00 +22°C° 0 mm 0 m/S 746 mmHg 77%
08:00 +24°C° 0 mm 1 m/S 746 mmHg 74%
09:00 +25°C° 0 mm 1 m/S 746 mmHg 72%
10:00 +26°C° 0 mm 1 m/S 746 mmHg 68%
11:00 +27°C° 0 mm 2 m/S 746 mmHg 65%
12:00 +27°C° 0 mm 2 m/S 746 mmHg 61%
13:00 +28°C° 0 mm 2 m/S 746 mmHg 57%
14:00 +29°C° 0 mm 2 m/S 745 mmHg 54%
15:00 +29°C° 0 mm 2 m/S 745 mmHg 50%
16:00 +29°C° 0 mm 2 m/S 745 mmHg 55%
17:00 +28°C° 0 mm 2 m/S 745 mmHg 60%
18:00 +27°C° 0 mm 1 m/S 745 mmHg 65%
19:00 +26°C° 0 mm 1 m/S 744 mmHg 69%
20:00 +24°C° 0 mm 1 m/S 744 mmHg 72%
21:00 +23°C° 0 mm 1 m/S 744 mmHg 76%
22:00 +21°C° 0 mm 2 m/S 744 mmHg 78%
23:00 +21°C° 0 mm 2 m/S 744 mmHg 80%
Mehr zeigen

Wir brauchen deine Erlaubnis

Meteoprog und unser Service Anbieter werden persönliche Daten aufbewahren, so wie Cookies, Geräte Bezeichnung oder ähnliche Technologien von deinem Gerät und Prozess, so wie Persönliche Daten Inhalte und Werbungen, genauso wie social Media und den Verkehr zu analysieren.

  • Aufbewahrung und/oder Zugang zu deiner Geräte Informationen.

    Cookies, Geräte Bezeichnung oder andere Informationen, können aufbewahrt oder Zugang zu deinem Gerät erhalten, für den Grund, der oben angegeben wird.

  • Personalisierte Werbung und Inhalte, Messungen, Einblick in das Publikum und Produkt Entwicklung.

    Werbungen und Inhalte können personalisiert werden, basierend auf ein Profil. Mehr Daten können besser personalisierte Werbungen und Inhalte hinzufügen. Werbung und Inhalte können gezeigt und gemessen werden. Einblicke über das Publikum, welche die Werbung gesehen haben und den Inhalt, können abgeleitet werden. So wie Daten können genutzt werden, um es zu verbessern oder die Benutzer Erfahrung zu verbessern das System und die Software.

Wenn du “Ich stimme zu” klickst, erlaubst du uns, die Cookies zu benutzen die Geräte Bezeichnung, den Web oder ähnliche Technologien zu benutzen. Deine Settings, können in deinem Gerät bei deinem Browser geändert werden.

Für den bestimmten Zweck, berechtigten Interessen beruhen darauf, mehr als auf den Inhalt. Du kannst mehr darüber in unseren Privaten und Cookie Politik lesen.